When you browse on this site, cookies collect data to enhance your experience and personalize the content and advertising you see.
Visit our Privacy Policy to learn more. By continuing to use the site, you agree to this use of cookies and data.
  • In Hungary
  • List of Countries
  • For 7 days
  • Water Temperature
  • Satellite Maps
  • Weather Map
  • News
  • Weather Widgets
  • user-avatar
    Login

    Hourly Weather Cumaná

    Today, 21 March, Thursday

    Time Temperature Precipitation Wind Pressure Humidity
    00:00 +26°C° 0 mm 5 mps 752 mmHg 85%
    01:00 +26°C° 0 mm 5 mps 752 mmHg 85%
    02:00 +26°C° 0 mm 5 mps 751 mmHg 86%
    03:00 +26°C° 0 mm 5 mps 751 mmHg 87%
    04:00 +25°C° 0 mm 5 mps 751 mmHg 87%
    05:00 +25°C° 0 mm 4 mps 751 mmHg 88%
    06:00 +27°C° 0 mm 4 mps 752 mmHg 81%
    07:00 +28°C° 0 mm 4 mps 752 mmHg 74%
    08:00 +29°C° 0 mm 4 mps 753 mmHg 68%
    09:00 +33°C° 0 mm 4 mps 753 mmHg 59%
    10:00 +35°C° 0 mm 4 mps 753 mmHg 50%
    11:00 +37°C° 0 mm 5 mps 753 mmHg 41%
    12:00 +37°C° 0 mm 5 mps 752 mmHg 44%
    13:00 +36°C° 0 mm 5 mps 751 mmHg 48%
    14:00 +35°C° 0 mm 6 mps 750 mmHg 51%
    15:00 +34°C° 0 mm 6 mps 750 mmHg 55%
    16:00 +33°C° 0 mm 6 mps 750 mmHg 59%
    17:00 +33°C° 0 mm 6 mps 749 mmHg 63%
    18:00 +30°C° 0 mm 6 mps 750 mmHg 72%
    19:00 +29°C° 0 mm 6 mps 750 mmHg 81%
    20:00 +27°C° 0 mm 6 mps 751 mmHg 90%
    21:00 +27°C° 0 mm 6 mps 751 mmHg 89%
    22:00 +27°C° 0 mm 6 mps 752 mmHg 88%
    23:00 +27°C° 0 mm 5 mps 752 mmHg 87%

    Tomorrow, 22 March, Friday

    Time Temperature Precipitation Wind Pressure Humidity
    00:00 +26°C° 0 mm 5 mps 752 mmHg 87%
    01:00 +26°C° 0 mm 5 mps 751 mmHg 87%
    02:00 +26°C° 0 mm 5 mps 751 mmHg 87%
    03:00 +26°C° 0 mm 5 mps 751 mmHg 88%
    04:00 +26°C° 0 mm 5 mps 751 mmHg 88%
    05:00 +26°C° 0 mm 5 mps 751 mmHg 88%
    06:00 +27°C° 0 mm 4 mps 752 mmHg 80%
    07:00 +28°C° 0 mm 4 mps 752 mmHg 72%
    08:00 +30°C° 0 mm 4 mps 753 mmHg 64%
    09:00 +33°C° 0 mm 4 mps 753 mmHg 55%
    10:00 +35°C° 0 mm 4 mps 753 mmHg 45%
    11:00 +38°C° 0 mm 4 mps 753 mmHg 35%
    12:00 +39°C° 0 mm 5 mps 752 mmHg 35%
    13:00 +39°C° 0 mm 5 mps 751 mmHg 36%
    14:00 +39°C° 0 mm 5 mps 751 mmHg 36%
    15:00 +36°C° 0 mm 5 mps 750 mmHg 42%
    16:00 +35°C° 0 mm 5 mps 750 mmHg 48%
    17:00 +33°C° 0 mm 5 mps 749 mmHg 54%
    18:00 +32°C° 0 mm 5 mps 750 mmHg 62%
    19:00 +29°C° 0 mm 6 mps 750 mmHg 71%
    20:00 +28°C° 0 mm 6 mps 751 mmHg 80%
    21:00 +27°C° 0 mm 6 mps 752 mmHg 79%
    22:00 +27°C° 0 mm 6 mps 752 mmHg 78%
    23:00 +27°C° 0 mm 5 mps 753 mmHg 76%

    Day after tomorrow, 23 March, Saturday

    Time Temperature Precipitation Wind Pressure Humidity
    00:00 +27°C° 0 mm 5 mps 752 mmHg 79%
    01:00 +27°C° 0 mm 5 mps 752 mmHg 81%
    02:00 +26°C° 0 mm 5 mps 752 mmHg 84%
    03:00 +26°C° 0 mm 5 mps 751 mmHg 84%
    04:00 +26°C° 0 mm 5 mps 751 mmHg 84%
    05:00 +26°C° 0 mm 5 mps 751 mmHg 84%
    06:00 +27°C° 0 mm 4 mps 752 mmHg 75%
    07:00 +28°C° 0 mm 4 mps 753 mmHg 66%
    08:00 +30°C° 0 mm 3 mps 753 mmHg 57%
    09:00 +33°C° 0 mm 4 mps 753 mmHg 47%
    10:00 +36°C° 0 mm 4 mps 753 mmHg 38%
    11:00 +38°C° 0 mm 4 mps 754 mmHg 29%
    12:00 +38°C° 0 mm 4 mps 753 mmHg 30%
    13:00 +40°C° 0 mm 4 mps 752 mmHg 30%
    14:00 +40°C° 0 mm 4 mps 751 mmHg 31%
    15:00 +37°C° 0 mm 5 mps 751 mmHg 36%
    16:00 +36°C° 0 mm 5 mps 750 mmHg 42%
    17:00 +34°C° 0 mm 5 mps 750 mmHg 47%
    18:00 +33°C° 0 mm 5 mps 750 mmHg 56%
    19:00 +30°C° 0 mm 5 mps 751 mmHg 64%
    20:00 +28°C° 0 mm 6 mps 751 mmHg 72%
    21:00 +28°C° 0 mm 5 mps 752 mmHg 71%
    22:00 +28°C° 0 mm 5 mps 752 mmHg 69%
    23:00 +28°C° 0 mm 5 mps 753 mmHg 68%

    24 March, Sunday

    Time Temperature Precipitation Wind Pressure Humidity
    00:00 +27°C° 0 mm 5 mps 752 mmHg 69%
    01:00 +27°C° 0 mm 5 mps 752 mmHg 69%
    02:00 +27°C° 0 mm 5 mps 751 mmHg 70%
    03:00 +27°C° 0 mm 5 mps 751 mmHg 71%
    04:00 +26°C° 0 mm 5 mps 751 mmHg 71%
    05:00 +26°C° 0 mm 5 mps 751 mmHg 72%
    06:00 +27°C° 0 mm 5 mps 752 mmHg 67%
    07:00 +29°C° 0 mm 5 mps 753 mmHg 63%
    08:00 +30°C° 0 mm 4 mps 753 mmHg 58%
    09:00 +33°C° 0 mm 5 mps 753 mmHg 51%
    10:00 +35°C° 0 mm 5 mps 753 mmHg 44%
    11:00 +37°C° 0 mm 5 mps 753 mmHg 37%
    12:00 +37°C° 0 mm 5 mps 753 mmHg 38%
    13:00 +37°C° 0 mm 5 mps 752 mmHg 39%
    14:00 +38°C° 0 mm 6 mps 751 mmHg 39%
    15:00 +36°C° 0 mm 6 mps 750 mmHg 42%
    16:00 +35°C° 0 mm 6 mps 750 mmHg 44%
    17:00 +34°C° 0 mm 6 mps 750 mmHg 46%
    18:00 +32°C° 0 mm 6 mps 750 mmHg 53%
    19:00 +30°C° 0 mm 6 mps 750 mmHg 60%
    20:00 +28°C° 0 mm 6 mps 751 mmHg 66%
    21:00 +27°C° 0 mm 6 mps 751 mmHg 64%
    22:00 +27°C° 0 mm 5 mps 752 mmHg 61%
    23:00 +27°C° 0 mm 5 mps 752 mmHg 58%

    25 March, Monday

    Time Temperature Precipitation Wind Pressure Humidity
    00:00 +27°C° 0 mm 5 mps 751 mmHg 60%
    01:00 +26°C° 0 mm 5 mps 751 mmHg 63%
    02:00 +26°C° 0 mm 5 mps 751 mmHg 65%
    03:00 +26°C° 0 mm 5 mps 751 mmHg 64%
    04:00 +25°C° 0 mm 5 mps 751 mmHg 63%
    05:00 +25°C° 0 mm 5 mps 751 mmHg 62%
    06:00 +27°C° 0 mm 5 mps 751 mmHg 57%
    07:00 +28°C° 0 mm 5 mps 752 mmHg 52%
    08:00 +30°C° 0 mm 5 mps 752 mmHg 47%
    09:00 +33°C° 0 mm 5 mps 752 mmHg 40%
    10:00 +35°C° 0 mm 5 mps 752 mmHg 34%
    11:00 +39°C° 0 mm 5 mps 752 mmHg 27%
    12:00 +39°C° 0 mm 5 mps 751 mmHg 29%
    13:00 +39°C° 0 mm 6 mps 750 mmHg 31%
    14:00 +39°C° 0 mm 6 mps 750 mmHg 33%
    15:00 +38°C° 0 mm 6 mps 749 mmHg 40%
    16:00 +35°C° 0 mm 6 mps 749 mmHg 47%
    17:00 +33°C° 0 mm 6 mps 749 mmHg 54%
    18:00 +32°C° 0 mm 6 mps 749 mmHg 60%
    19:00 +29°C° 0 mm 6 mps 749 mmHg 66%
    20:00 +28°C° 0 mm 6 mps 750 mmHg 72%
    21:00 +28°C° 0 mm 6 mps 750 mmHg 72%
    22:00 +28°C° 0 mm 6 mps 751 mmHg 72%
    23:00 +27°C° 0 mm 6 mps 751 mmHg 72%

    26 March, Tuesday

    Time Temperature Precipitation Wind Pressure Humidity
    00:00 +27°C° 0 mm 6 mps 751 mmHg 75%
    01:00 +27°C° 0 mm 5 mps 750 mmHg 78%
    02:00 +26°C° 0 mm 5 mps 750 mmHg 80%
    03:00 +26°C° 0 mm 5 mps 750 mmHg 80%
    04:00 +26°C° 0 mm 5 mps 750 mmHg 80%
    05:00 +25°C° 0 mm 5 mps 750 mmHg 80%
    06:00 +27°C° 0 mm 5 mps 751 mmHg 72%
    07:00 +28°C° 0 mm 5 mps 752 mmHg 64%
    08:00 +30°C° 0 mm 4 mps 752 mmHg 56%
    09:00 +33°C° 0 mm 4 mps 752 mmHg 47%
    10:00 +36°C° 0 mm 4 mps 752 mmHg 39%
    11:00 +40°C° 0 mm 4 mps 752 mmHg 30%
    12:00 +38°C° 0 mm 4 mps 751 mmHg 31%
    13:00 +38°C° 0 mm 4 mps 750 mmHg 32%
    14:00 +39°C° 0 mm 5 mps 749 mmHg 33%
    15:00 +37°C° 0 mm 5 mps 749 mmHg 39%
    16:00 +35°C° 0 mm 5 mps 749 mmHg 44%
    17:00 +34°C° 0 mm 5 mps 748 mmHg 50%
    18:00 +32°C° 0 mm 5 mps 749 mmHg 58%
    19:00 +30°C° 0 mm 5 mps 749 mmHg 66%
    20:00 +28°C° 0 mm 5 mps 750 mmHg 74%
    21:00 +28°C° 0 mm 5 mps 750 mmHg 74%
    22:00 +28°C° 0 mm 6 mps 751 mmHg 73%
    23:00 +28°C° 0 mm 6 mps 751 mmHg 72%
    Show more